When you browse on this site, cookies collect data to enhance your experience and personalize the content and advertising you see.
Visit our Privacy Policy to learn more. By continuing to use the site, you agree to this use of cookies and data.
  • In Sweden
  • List of Countries
  • For 7 days
  • Water Temperature
  • Satellite Maps
  • Weather Map
  • Weather Widgets
  • user-avatar
    Login

    Hourly Weather Dorotow

    Today, 24 April, Wednesday

    Time Temperature Precipitation Wind Pressure Humidity
    00:00 +10°C° 0 mm 6 mps 744 mmHg 59%
    01:00 +9°C° 0 mm 6 mps 743 mmHg 60%
    02:00 +9°C° 0 mm 6 mps 743 mmHg 63%
    03:00 +9°C° 0 mm 6 mps 743 mmHg 66%
    04:00 +8°C° 0 mm 6 mps 743 mmHg 69%
    05:00 +9°C° 0 mm 6 mps 743 mmHg 69%
    06:00 +10°C° 0 mm 6 mps 743 mmHg 69%
    07:00 +11°C° 0 mm 7 mps 743 mmHg 69%
    08:00 +12°C° 0 mm 7 mps 743 mmHg 65%
    09:00 +15°C° 0 mm 7 mps 743 mmHg 61%
    10:00 +16°C° 0 mm 7 mps 743 mmHg 58%
    11:00 +17°C° 0 mm 7 mps 743 mmHg 56%
    12:00 +18°C° 0 mm 7 mps 743 mmHg 55%
    13:00 +18°C° 0 mm 7 mps 743 mmHg 54%
    14:00 +20°C° 0 mm 7 mps 743 mmHg 53%
    15:00 +20°C° 0 mm 7 mps 743 mmHg 53%
    16:00 +21°C° 0 mm 7 mps 743 mmHg 52%
    17:00 +19°C° 0 mm 6 mps 743 mmHg 58%
    18:00 +16°C° 0 mm 6 mps 743 mmHg 63%
    19:00 +15°C° 0 mm 5 mps 743 mmHg 69%
    20:00 +14°C° 0 mm 5 mps 743 mmHg 71%
    21:00 +14°C° 0 mm 5 mps 743 mmHg 72%
    22:00 +13°C° 0 mm 4 mps 743 mmHg 74%
    23:00 +13°C° 0 mm 5 mps 743 mmHg 76%

    Tomorrow, 25 April, Thursday

    Time Temperature Precipitation Wind Pressure Humidity
    00:00 +13°C° 0 mm 5 mps 743 mmHg 78%
    01:00 +13°C° 0 mm 5 mps 743 mmHg 80%
    02:00 +13°C° 0 mm 5 mps 743 mmHg 79%
    03:00 +13°C° 0 mm 5 mps 743 mmHg 79%
    04:00 +13°C° 0 mm 5 mps 742 mmHg 78%
    05:00 +14°C° 0 mm 5 mps 742 mmHg 75%
    06:00 +15°C° 0 mm 5 mps 742 mmHg 72%
    07:00 +16°C° 0 mm 5 mps 742 mmHg 69%
    08:00 +17°C° 0 mm 5 mps 743 mmHg 64%
    09:00 +20°C° 0 mm 5 mps 743 mmHg 59%
    10:00 +21°C° 0 mm 5 mps 743 mmHg 54%
    11:00 +22°C° 0 mm 5 mps 743 mmHg 52%
    12:00 +22°C° 0 mm 5 mps 742 mmHg 51%
    13:00 +22°C° 0 mm 5 mps 742 mmHg 49%
    14:00 +22°C° 0 mm 4 mps 742 mmHg 51%
    15:00 +22°C° 0 mm 3 mps 742 mmHg 52%
    16:00 +22°C° 0 mm 3 mps 742 mmHg 54%
    17:00 +21°C° 0 mm 3 mps 742 mmHg 56%
    18:00 +20°C° 0 mm 2 mps 742 mmHg 59%
    19:00 +19°C° 0 mm 2 mps 742 mmHg 62%
    20:00 +18°C° 0 mm 2 mps 742 mmHg 64%
    21:00 +18°C° 0 mm 2 mps 742 mmHg 67%
    22:00 +17°C° 0 mm 2 mps 742 mmHg 70%
    23:00 +16°C° 0 mm 2 mps 742 mmHg 72%

    Day after tomorrow, 26 April, Friday

    Time Temperature Precipitation Wind Pressure Humidity
    00:00 +16°C° 0 mm 2 mps 742 mmHg 73%
    01:00 +14°C° 0 mm 3 mps 741 mmHg 75%
    02:00 +14°C° 0 mm 3 mps 741 mmHg 76%
    03:00 +13°C° 0 mm 3 mps 741 mmHg 77%
    04:00 +13°C° 0 mm 3 mps 741 mmHg 78%
    05:00 +14°C° 0 mm 3 mps 740 mmHg 74%
    06:00 +17°C° 0 mm 3 mps 740 mmHg 71%
    07:00 +18°C° 0 mm 3 mps 740 mmHg 67%
    08:00 +20°C° 0 mm 3 mps 740 mmHg 60%
    09:00 +22°C° 0 mm 3 mps 740 mmHg 52%
    10:00 +25°C° 0 mm 3 mps 740 mmHg 44%
    11:00 +25°C° 0 mm 3 mps 740 mmHg 42%
    12:00 +26°C° 0 mm 3 mps 739 mmHg 40%
    13:00 +26°C° 0 mm 4 mps 739 mmHg 38%
    14:00 +26°C° 0 mm 4 mps 739 mmHg 39%
    15:00 +26°C° 0 mm 4 mps 738 mmHg 41%
    16:00 +26°C° 0 mm 4 mps 738 mmHg 42%
    17:00 +24°C° 0 mm 3 mps 738 mmHg 48%
    18:00 +23°C° 0 mm 2 mps 738 mmHg 54%
    19:00 +20°C° 0 mm 2 mps 738 mmHg 59%
    20:00 +19°C° 0.1 mm 2 mps 738 mmHg 64%
    21:00 +18°C° 0.1 mm 2 mps 738 mmHg 68%
    22:00 +17°C° 0.1 mm 2 mps 738 mmHg 73%
    23:00 +17°C° 0 mm 2 mps 738 mmHg 74%

    27 April, Saturday

    Time Temperature Precipitation Wind Pressure Humidity
    00:00 +16°C° 0 mm 3 mps 738 mmHg 76%
    01:00 +16°C° 0 mm 3 mps 738 mmHg 78%
    02:00 +16°C° 0 mm 3 mps 738 mmHg 76%
    03:00 +16°C° 0 mm 3 mps 738 mmHg 75%
    04:00 +15°C° 0 mm 4 mps 737 mmHg 74%
    05:00 +15°C° 0 mm 4 mps 737 mmHg 71%
    06:00 +15°C° 0 mm 5 mps 738 mmHg 67%
    07:00 +14°C° 0 mm 6 mps 738 mmHg 64%
    08:00 +16°C° 0 mm 6 mps 738 mmHg 62%
    09:00 +17°C° 0 mm 6 mps 738 mmHg 59%
    10:00 +19°C° 0 mm 6 mps 738 mmHg 57%
    11:00 +19°C° 0 mm 6 mps 738 mmHg 57%
    12:00 +19°C° 0 mm 5 mps 738 mmHg 58%
    13:00 +19°C° 0 mm 5 mps 738 mmHg 58%
    14:00 +19°C° 0 mm 5 mps 738 mmHg 59%
    15:00 +19°C° 0 mm 5 mps 738 mmHg 60%
    16:00 +19°C° 0 mm 5 mps 739 mmHg 61%
    17:00 +16°C° 0 mm 5 mps 739 mmHg 66%
    18:00 +14°C° 0 mm 5 mps 739 mmHg 72%
    19:00 +13°C° 0 mm 5 mps 740 mmHg 77%
    20:00 +12°C° 0 mm 5 mps 740 mmHg 77%
    21:00 +11°C° 0 mm 4 mps 741 mmHg 77%
    22:00 +10°C° 0 mm 4 mps 741 mmHg 77%
    23:00 +8°C° 0 mm 4 mps 742 mmHg 79%

    28 April, Sunday

    Time Temperature Precipitation Wind Pressure Humidity
    00:00 +8°C° 0 mm 4 mps 742 mmHg 82%
    01:00 +7°C° 0 mm 4 mps 742 mmHg 84%
    02:00 +7°C° 0 mm 4 mps 742 mmHg 85%
    03:00 +7°C° 0 mm 4 mps 742 mmHg 86%
    04:00 +7°C° 0 mm 3 mps 743 mmHg 87%
    05:00 +7°C° 0 mm 4 mps 743 mmHg 84%
    06:00 +8°C° 0 mm 4 mps 743 mmHg 80%
    07:00 +10°C° 0 mm 4 mps 743 mmHg 76%
    08:00 +12°C° 0 mm 4 mps 744 mmHg 70%
    09:00 +13°C° 0 mm 4 mps 744 mmHg 64%
    10:00 +15°C° 0 mm 4 mps 744 mmHg 58%
    11:00 +15°C° 0 mm 5 mps 744 mmHg 58%
    12:00 +15°C° 0 mm 5 mps 744 mmHg 57%
    13:00 +16°C° 0 mm 5 mps 744 mmHg 56%
    14:00 +15°C° 0 mm 4 mps 743 mmHg 60%
    15:00 +15°C° 0 mm 4 mps 743 mmHg 63%
    16:00 +14°C° 0 mm 3 mps 743 mmHg 66%
    17:00 +13°C° 0 mm 3 mps 743 mmHg 69%
    18:00 +13°C° 0 mm 3 mps 743 mmHg 72%
    19:00 +12°C° 0 mm 3 mps 743 mmHg 74%
    20:00 +12°C° 0 mm 3 mps 743 mmHg 74%
    21:00 +12°C° 0 mm 4 mps 744 mmHg 75%
    22:00 +11°C° 0 mm 4 mps 744 mmHg 75%
    23:00 +11°C° 0 mm 4 mps 743 mmHg 77%

    29 April, Monday

    Time Temperature Precipitation Wind Pressure Humidity
    00:00 +11°C° 0 mm 4 mps 743 mmHg 79%
    01:00 +10°C° 0 mm 5 mps 743 mmHg 81%
    02:00 +11°C° 0.5 mm 4 mps 743 mmHg 85%
    03:00 +11°C° 0.5 mm 4 mps 743 mmHg 89%
    04:00 +11°C° 0.5 mm 4 mps 743 mmHg 93%
    05:00 +11°C° 0.6 mm 4 mps 743 mmHg 93%
    06:00 +12°C° 0.6 mm 3 mps 743 mmHg 94%
    07:00 +12°C° 0.6 mm 3 mps 743 mmHg 94%
    08:00 +13°C° 0.5 mm 3 mps 743 mmHg 93%
    09:00 +13°C° 0.5 mm 3 mps 743 mmHg 92%
    10:00 +14°C° 0.5 mm 3 mps 742 mmHg 90%
    11:00 +14°C° 1.5 mm 3 mps 742 mmHg 90%
    12:00 +16°C° 1.5 mm 3 mps 742 mmHg 89%
    13:00 +16°C° 1.5 mm 3 mps 742 mmHg 88%
    14:00 +16°C° 0.9 mm 3 mps 742 mmHg 88%
    15:00 +16°C° 0.9 mm 3 mps 742 mmHg 87%
    16:00 +17°C° 0.9 mm 4 mps 742 mmHg 87%
    17:00 +15°C° 0.1 mm 4 mps 742 mmHg 89%
    18:00 +14°C° 0.1 mm 4 mps 742 mmHg 91%
    19:00 +14°C° 0.1 mm 4 mps 742 mmHg 93%
    20:00 +13°C° 0 mm 3 mps 742 mmHg 94%
    21:00 +13°C° 0 mm 3 mps 742 mmHg 94%
    22:00 +12°C° 0 mm 3 mps 743 mmHg 95%
    23:00 +12°C° 0 mm 3 mps 743 mmHg 95%
    Show more